Погода в Малакке

Малайзия     2°11′56″N   102°15′15″E
темп.,
°C
ветер,
м/с
пор.,
м/с
влажн.,
%
обл.,
%
осадки,
мм/ч
давл.,
гПа
погр.,
м
6 марта, сб
сб623:00+26св497366 0.1 1011424
02:00+25св498383 0.3 1011450
05:00+24св41089100 0.0 1010455
08:00+25св4986100 0.0 1012482
11:00+30св586175 0.0 1013814
14:00+34с244941 0.0 10101534
17:00+30з4565100 0.4 1007386
20:00+27сз1280100 1.4 100947
7 марта, вс
вс723:00+26св498699 0.9 1012431
02:00+25св4109084 0.9 1011570
05:00+24св5119099 0.1 1009506
08:00+24ссв488898 0.4 1011400
11:00+29ссв4567100 1.6 1013707
14:00+29з4469100 5.8 1011718
17:00+29зюз446899 3.0 1009735
20:00+25юз468699 7.1 1011196
8 марта, пн
пн823:00+25юз3688100 2.7 1013260
02:00+24зюз238993 3.1 1013169
05:00+24зсз229081 3.1 1011126
08:00+23ссв239085 3.1 1012115
11:00+28св356990 0.0 1014873
14:00+32св245395 0.0 10111296
17:00+32всв144951 0.0 10081475
20:00+27ю23751 0.0 100968
9 марта, вт
вт923:00+26св4107319 0.0 1012395
02:00+24св4108047 0.0 1011433
05:00+24ссв4108763 0.0 1011432
08:00+23св498673 0.0 1012409
11:00+28ссв4763100 0.0 1014764
14:00+32ссз2451100 0.0 10101350
17:00+31зсз345290 0.0 1008881
20:00+26зсз358045 0.0 1010166
10 марта, ср
ср1023:00+25св368032 0.4 1012315
02:00+24ссв388766 0.4 1012471
05:00+23св499043 0.0 1010471
08:00+23св478748 0.0 1012258
11:00+29ссв446562 0.0 1014752
14:00+32ссв244781 0.0 10101434
17:00+32зюз034695 0.0 10081210
20:00+27зсз117273 0.0 100924